Weather History for KAFW - October, 2012

Change the Weather History Date:

Wednesday, October 31, 2012

  Actual Average Record
Temperature  
Mean Temperature 64 °F -  
Max Temperature 82 °F 69 °F 87 °F (2003)
Min Temperature 46 °F 49 °F 39 °F (2011)
Degree Days  
Heating Degree Days 1    
Growing Degree Days 14 (Base 50)    
Moisture  
Dew Point 44 °F    
Average Humidity 56    
Maximum Humidity 93    
Minimum Humidity 22    
Precipitation  
Precipitation 0.00 in - - ()
Sea Level Pressure  
Sea Level Pressure 29.98 in    
Wind  
Wind Speed 3 mph (WSW)    
Max Wind Speed 12 mph    
Max Gust Speed -    
Visibility 10 miles    
Events      
Averages and records for this station are not official NWS values.
T = Trace of Precipitation, MM = Missing Value Source: NWS Daily Summary

Daily Weather History Graph

Daily Weather History Graph

Search for Another Location

Airport or City:

Trip Planner

Search our weather history database for the weather conditions in past years. The results will help you decide how hot, cold, wet, or windy it might be!

Date:

Astronomy

Oct. 31, 2012 Rise Set
Actual Time 7:46 AM CDT 6:38 PM CDT
Civil Twilight 7:21 AM CDT 7:03 PM CDT
Nautical Twilight 6:52 AM CDT 7:33 PM CDT
Astronomical Twilight 6:23 AM CDT 8:01 PM CDT
Moon 7:56 PM CDT (10/31) 9:23 AM CDT (10/31)
Length of Visible Light 11h 42m
Length of Day
10h 51m
Full, 97% of the Moon is Illuminated
Oct 31
Full
Nov 6
Last Quarter
Nov 13
New
Nov 20
First Quarter
Nov 28
Full

Hourly Weather History & Observations

Time (CDT) Temp. Dew Point Humidity Pressure Visibility Wind Dir Wind Speed Gust Speed Precip Events Conditions
12:53 AM 55.9 °F 43.0 °F 62% 29.94 in 10.0 mi SW 3.5 mph - N/A   Clear
1:53 AM 54.0 °F 43.0 °F 66% 29.94 in 10.0 mi Calm Calm - N/A   Clear
2:53 AM 53.1 °F 44.1 °F 71% 29.94 in 10.0 mi Calm Calm - N/A   Clear
3:53 AM 52.0 °F 44.1 °F 74% 29.94 in 10.0 mi South 3.5 mph - N/A   Clear
4:53 AM 52.0 °F 45.0 °F 77% 29.94 in 10.0 mi SSW 3.5 mph - N/A   Clear
5:53 AM 48.0 °F 44.1 °F 86% 29.95 in 10.0 mi Calm Calm - N/A   Clear
6:53 AM 46.9 °F 44.1 °F 90% 29.96 in 10.0 mi South 5.8 mph - N/A   Clear
7:53 AM 46.9 °F 45.0 °F 93% 29.98 in 10.0 mi SW 4.6 mph - N/A   Clear
8:53 AM 54.0 °F 46.9 °F 77% 30.00 in 10.0 mi Calm Calm - N/A   Clear
9:53 AM 64.0 °F 44.1 °F 48% 30.02 in 10.0 mi North 11.5 mph - N/A   Clear
10:53 AM 66.9 °F 44.1 °F 44% 30.02 in 10.0 mi NNE 5.8 mph - N/A   Clear
11:53 AM 72.0 °F 44.1 °F 37% 30.02 in 10.0 mi NNW 6.9 mph - N/A   Clear
12:53 PM 77.0 °F 43.0 °F 30% 30.01 in 10.0 mi North 4.6 mph - N/A   Clear
1:53 PM 79.0 °F 42.1 °F 27% 29.98 in 10.0 mi Variable 3.5 mph - N/A   Clear
2:53 PM 81.0 °F 42.1 °F 25% 29.96 in 10.0 mi Variable 3.5 mph - N/A   Clear
3:53 PM 82.9 °F 41.0 °F 23% 29.95 in 10.0 mi Variable 3.5 mph - N/A   Clear
4:53 PM 82.9 °F 39.9 °F 22% 29.95 in 10.0 mi Calm Calm - N/A   Clear
5:53 PM 81.0 °F 42.1 °F 25% 29.96 in 10.0 mi Calm Calm - N/A   Clear
6:53 PM 71.1 °F 45.0 °F 39% 29.97 in 10.0 mi Calm Calm - N/A   Clear
7:53 PM 61.0 °F 46.0 °F 58% 29.99 in 10.0 mi Calm Calm - N/A   Clear
8:53 PM 59.0 °F 45.0 °F 60% 30.00 in 10.0 mi Calm Calm - N/A   Clear
9:53 PM 57.0 °F 46.0 °F 67% 29.99 in 10.0 mi Calm Calm - N/A   Clear
10:53 PM 52.0 °F 46.0 °F 80% 30.01 in 10.0 mi WSW 3.5 mph - N/A   Clear
11:53 PM 52.0 °F 44.1 °F 74% 30.00 in 10.0 mi Calm Calm - N/A   Clear